Alicante, Spain

7:29 PM CEST on August 30, 2016 (GMT +0200)
Alicante

Weather History for LEAL - November, 2012

Change the Weather History Date:

Thursday, November 1, 2012

  Actual Average Record
Temperature  
Mean Temperature 62 °F -  
Max Temperature 72 °F 65 °F 80 °F (1998)
Min Temperature 51 °F 49 °F 46 °F (2007)
Degree Days  
Heating Degree Days 4    
Growing Degree Days 12 (Base 50)    
Moisture  
Dew Point 44 °F    
Average Humidity 52    
Maximum Humidity 76    
Minimum Humidity 21    
Precipitation  
Precipitation 0.00 in - - ()
Sea Level Pressure  
Sea Level Pressure 29.67 in    
Wind  
Wind Speed 11 mph ()    
Max Wind Speed 20 mph    
Max Gust Speed 30 mph    
Visibility 7.4 miles    
Events      
Averages and records for this station are not official NWS values.
T = Trace of Precipitation, MM = Missing Value Source: Averaged Metar Reports

Daily Weather History Graph

Daily Weather History Graph

Search for Another Location

Airport or City:

Trip Planner

Search our weather history database for the weather conditions in past years. The results will help you decide how hot, cold, wet, or windy it might be!

Date:

Astronomy

Nov. 01, 2012 Rise Set
Actual Time 7:28 AM CET 6:02 PM CET
Civil Twilight 7:01 AM CET 6:29 PM CET
Nautical Twilight 6:30 AM CET 7:01 PM CET
Astronomical Twilight 5:59 AM CET 7:31 PM CET
Moon 7:49 PM CET (11/1) 9:47 AM CET (11/1)
Length of Visible Light 11h 28m
Length of Day
10h 33m
Waning Gibbous, 94% of the Moon is Illuminated
Nov 1
Waning Gibbous
Nov 7
Last Quarter
Nov 13
New
Nov 20
First Quarter
Nov 28
Full

Hourly Weather History & Observations

Time (CET) Temp. Dew Point Humidity Pressure Visibility Wind Dir Wind Speed Gust Speed Precip Events Conditions
12:00 AM 59.0 °F 44.6 °F 59% 29.59 in - West 12.7 mph - N/A   Clear
12:30 AM 57.2 °F 44.6 °F 63% 29.59 in - WSW 13.8 mph - N/A   Clear
1:00 AM 58 °F 42 °F 45% 29.60 in 12 mi WSW 16.1 mph - -   Clear
1:00 AM 59.0 °F 44.6 °F 59% 29.59 in - WSW 16.1 mph - N/A   Clear
1:30 AM 59.0 °F 44.6 °F 59% 29.59 in - WSW 13.8 mph - N/A   Clear
2:00 AM 59.0 °F 44.6 °F 59% 29.59 in - WSW 12.7 mph - N/A   Clear
2:30 AM 59.0 °F 44.6 °F 59% 29.59 in - WSW 13.8 mph - N/A   Clear
3:00 AM 59.0 °F 44.6 °F 59% 29.59 in - WSW 10.4 mph - N/A   Clear
3:30 AM 59.0 °F 42.8 °F 55% 29.59 in - WSW 12.7 mph - N/A   Clear
4:00 AM 59.0 °F 42.8 °F 55% 29.59 in - West 12.7 mph - N/A   Clear
4:30 AM 55.4 °F 44.6 °F 67% 29.59 in - SW 9.2 mph - N/A   Clear
5:00 AM 53.6 °F 44.6 °F 72% 29.59 in - WSW 5.8 mph - N/A   Clear
5:30 AM 51.8 °F 44.6 °F 76% 29.59 in - WSW 8.1 mph - N/A   Clear
6:00 AM 53.6 °F 44.6 °F 72% 29.59 in - SW 8.1 mph - N/A   Clear
6:30 AM 53.6 °F 42.8 °F 67% 29.59 in - SW 9.2 mph - N/A   Clear
7:00 AM 51 °F 41 °F 60% 29.62 in 19 mi SW 9.2 mph - -   Scattered Clouds
7:00 AM 51.8 °F 44.6 °F 76% 29.62 in - SW 8.1 mph - N/A   Clear
7:30 AM 55.4 °F 42.8 °F 63% 29.62 in - West 10.4 mph - N/A   Clear
8:00 AM 53.6 °F 44.6 °F 72% 29.62 in - WSW 9.2 mph - N/A   Clear
8:30 AM 55.4 °F 44.6 °F 67% 29.65 in - WSW 6.9 mph - N/A   Clear
9:00 AM 59.0 °F 46.4 °F 63% 29.65 in - WSW 5.8 mph - N/A   Clear
9:30 AM 62.6 °F 44.6 °F 52% 29.68 in - WSW 11.5 mph - N/A   Clear
10:00 AM 64.4 °F 42.8 °F 45% 29.68 in - WSW 10.4 mph - N/A   Clear
10:30 AM 66.2 °F 42.8 °F 43% 29.68 in - WSW 13.8 mph 25.3 mph N/A   Clear
11:00 AM 68.0 °F 42.8 °F 40% 29.68 in - West 19.6 mph - N/A   Clear
11:30 AM 68.0 °F 42.8 °F 40% 29.68 in - West 18.4 mph - N/A   Clear
12:00 PM 68.0 °F 42.8 °F 40% 29.68 in 6.2 mi West 18.4 mph - N/A   Partly Cloudy
12:30 PM 69.8 °F 42.8 °F 38% 29.68 in 6.2 mi West 17.3 mph - N/A   Partly Cloudy
1:00 PM 70 °F 39 °F 21% 29.68 in 25 mi West 18.4 mph - -   Scattered Clouds
1:00 PM 69.8 °F 42.8 °F 38% 29.68 in 6.2 mi West 17.3 mph - N/A   Partly Cloudy
1:30 PM 69.8 °F 42.8 °F 38% 29.68 in 6.2 mi West 13.8 mph - N/A   Partly Cloudy
2:00 PM 71.6 °F 42.8 °F 35% 29.65 in 6.2 mi West 16.1 mph 29.9 mph N/A   Partly Cloudy
2:30 PM 71.6 °F 42.8 °F 35% 29.65 in 6.2 mi West 15.0 mph - N/A   Partly Cloudy
3:00 PM 71.6 °F 41.0 °F 33% 29.65 in 6.2 mi West 17.3 mph - N/A   Partly Cloudy
3:30 PM 73.4 °F 42.8 °F 33% 29.65 in 6.2 mi West 15.0 mph - N/A   Partly Cloudy
4:00 PM 73.4 °F 42.8 °F 33% 29.68 in 6.2 mi West 13.8 mph - N/A   Partly Cloudy
4:30 PM 73.4 °F 42.8 °F 33% 29.68 in 6.2 mi WNW 11.5 mph - N/A   Partly Cloudy
5:00 PM 71.6 °F 42.8 °F 35% 29.68 in 6.2 mi WNW 11.5 mph - N/A   Partly Cloudy
5:30 PM 69.8 °F 44.6 °F 40% 29.68 in 6.2 mi West 11.5 mph - N/A   Partly Cloudy
6:00 PM 68.0 °F 44.6 °F 43% 29.71 in 6.2 mi West 8.1 mph - N/A   Partly Cloudy
6:30 PM 62.6 °F 46.4 °F 55% 29.74 in 6.2 mi West 4.6 mph - N/A   Partly Cloudy
7:00 PM 62 °F 46 °F 44% 29.76 in 22 mi West 2.3 mph - -   Scattered Clouds
7:00 PM 62.6 °F 48.2 °F 59% 29.74 in - Variable 2.3 mph - N/A   Clear
7:30 PM 64.4 °F 46.4 °F 52% 29.77 in - WNW 8.1 mph - N/A   Clear
8:00 PM 64.4 °F 44.6 °F 49% 29.80 in - WSW 10.4 mph - N/A   Clear
8:30 PM 64.4 °F 44.6 °F 49% 29.77 in - West 6.9 mph - N/A   Clear
9:00 PM 60.8 °F 44.6 °F 55% 29.80 in - SW 5.8 mph - N/A   Clear
9:30 PM 57.2 °F 46.4 °F 67% 29.80 in - Variable 2.3 mph - N/A   Clear
10:00 PM 60.8 °F 46.4 °F 59% 29.83 in - West 3.5 mph - N/A   Clear
10:30 PM 59.0 °F 46.4 °F 63% 29.83 in - WNW 9.2 mph - N/A   Clear
11:00 PM 57.2 °F 46.4 °F 67% 29.83 in - WNW 5.8 mph - N/A   Clear
11:30 PM 60.8 °F 46.4 °F 59% 29.86 in - SW 5.8 mph - N/A   Clear